[[[{"header":{"parameterUnit":"kt","parameterCategory":2,"dx":1,"dy":1,"la1":30.253999710083008,"la2":30.299108505249023,"lo1":-89.0895004272461,"lo2":-89.04439544677734,"nx":28,"ny":28,"refTime":"2022-09-30T21:00:00:Z","depth":0,"parameterNumber":1,"parameterNumberName":"U-component_of_WINDS"},"data":[-3.2424,-3.2518,-3.2507,-3.261,-3.2617,-3.2686,-3.2707,-3.2733,-3.2751,-3.2831,-3.2875,-3.2874,-3.2887,-3.2938,-3.2985,-3.2983,-3.3006,-3.3046,-3.3038,-3.2863,-3.2838,-3.2814,-3.2792,-3.3051,-3.3051,-3.3222,-3.3224,-3.3225,-3.2297,-3.2306,-3.2357,-3.2399,-3.2442,-3.2396,-3.2426,-3.2465,-3.2528,-3.255,-3.2592,-3.2662,-3.2716,-3.2715,-3.2765,-3.2809,-3.2791,-3.2824,-3.2822,-3.2825,-3.2636,-3.2613,-3.2838,-3.2838,-3.2838,-3.2837,-3.2837,-3.2837,-3.2065,-3.2121,-3.214,-3.2195,-3.2213,-3.2241,-3.2293,-3.229,-3.2339,-3.2389,-3.2366,-3.2436,-3.2457,-3.2511,-3.2526,-3.2581,-3.2543,-3.2576,-3.2585,-3.2594,-3.2607,-3.2365,-3.2588,-3.2588,-3.2587,-3.2587,-3.2586,0,-3.1891,-3.1879,-3.1926,-3.1971,-3.201,-3.2043,-3.2072,-3.2104,-3.2072,-3.2114,-3.2174,-3.2207,-3.2272,-3.2328,-3.2371,-3.238,-3.2339,-3.2332,-3.2355,-3.237,-3.2377,-3.2377,-3.2072,-3.2326,-3.2324,-3.2322,-3.2321,-3.232,-3.1658,-3.1724,-3.1738,-3.1773,-3.1786,-3.1843,-3.1874,-3.1841,-3.1876,-3.1906,-3.1958,-3.2012,-3.2055,-3.2153,-3.2149,-3.2197,-3.2178,-3.2276,-3.2185,-3.2195,-3.2183,-3.2181,-3.2188,-3.2296,-3.2299,-3.2302,-3.2304,0,-3.1529,-3.151,-3.1609,-3.1615,-3.1619,-3.1691,-3.1697,-3.1751,-3.1741,-3.1816,-3.1831,-3.1817,-3.1876,-3.1856,-3.1919,-3.1907,-3.2026,-3.2004,-3.2019,-3.2015,-3.2103,-3.2096,-3.2388,-3.2425,-3.2153,-3.2156,-3.2158,0,-3.1324,-3.1412,-3.1379,-3.1437,-3.1534,-3.1498,-3.1595,-3.1596,-3.1612,-3.167,-3.1617,-3.1673,-3.1637,-3.169,-3.1672,-3.1765,-3.1776,-3.1774,-3.1769,-3.178,-3.1781,-3.1801,-3.179,-3.175,-3.1749,-3.1747,-3.1746,0,-3.1125,-3.1209,-3.1303,-3.132,-3.1336,-3.1381,-3.139,-3.1407,-3.1438,-3.1475,-3.1495,-3.154,-3.1566,-3.1602,-3.1579,-3.1518,-3.1691,-3.1603,-3.1689,-3.169,-3.1731,-3.1729,-3.1989,-3.1744,-3.1744,-3.1743,-3.1743,0,-3.0958,-3.0995,-3.1133,-3.1146,-3.1169,-3.1231,-3.1273,-3.1321,-3.1343,-3.1335,-3.1364,-3.1327,-3.1405,-3.1319,-3.1426,-3.1354,-3.1382,-3.1385,-3.1391,-3.14,-3.1305,-3.1458,-3.1706,-3.1732,-3.1404,-3.1401,-3.1399,0,-3.0737,-3.0871,-3.0841,-3.0973,-3.1032,-3.097,-3.1037,-3.1058,-3.1053,-3.1103,-3.1097,-3.1154,-3.1086,-3.1101,-3.1156,-3.1154,-3.1248,-3.114,-3.1215,-3.1219,-3.1214,-3.1441,-3.1485,-3.1653,-3.1362,-3.1366,-3.1369,0,-3.0564,-3.0582,-3.0608,-3.0625,-3.0646,-3.0695,-3.0772,-3.082,-3.0855,-3.0883,-3.0949,-3.1027,-3.0979,-3.1005,-3.0979,-3.1038,-3.1183,-3.0979,-3.0979,-3.1019,-3.1341,-3.1382,-3.1411,-3.1153,-3.1157,-3.1161,-3.134,0,-3.0321,-3.0384,-3.0451,-3.0491,-3.0524,-3.0605,-3.0582,-3.0621,-3.0593,-3.0586,-3.068,-3.0691,-3.0741,-3.0766,-3.074,-3.088,-3.0854,-3.0802,-3.072,-3.0867,-3.0926,-3.0949,-3.0634,-3.0631,-3.0629,-3.0627,0,0,-3.0116,-3.0206,-3.0171,-3.0244,-3.0271,-3.0204,-3.0293,-3.0311,-3.035,-3.037,-3.0323,-3.0436,-3.0448,-3.0565,-3.0609,-3.0628,-3.0652,-3.0601,-3.0796,-3.0815,-3.0833,-3.0896,-3.0921,-3.0623,-3.0623,-3.0622,-3.0621,0,-3.0023,-3.0034,-3.0121,-3.0138,-3.0162,-3.0149,-3.017,-3.0183,-3.0182,-3.0273,-3.0219,-3.0272,-3.0363,-3.0383,-3.0406,-3.0585,-3.0542,-3.0602,-3.0707,-3.0775,-3.0797,-3.0816,-3.0883,-3.0907,-3.0616,-3.0616,-3.0616,0,-2.9851,-2.9859,-2.9898,-2.9953,-2.9969,-3.003,-2.9937,-3.0006,-3.0051,-2.9976,-3.0068,-3.0072,-3.0096,-3.0209,-3.0258,-3.0217,-3.0444,-3.0368,-3.0381,-3.0387,-3.0451,-3.0478,-3.0501,-3.0194,-3.0192,-3.0191,0,0,-2.9774,-2.9831,-2.983,-2.9932,-2.9945,-2.9928,-2.9958,-2.9933,-2.9956,-2.9966,-2.997,-2.9994,-3.0047,-3.0082,-3.013,-3.0256,-3.026,-3.0316,-3.0336,-3.0353,-3.0368,-3.0437,-3.0463,-3.0186,-3.0186,-3.0185,0,0,-2.9737,-2.9739,-2.9706,-2.9821,-2.9845,-2.9851,-2.9914,-2.9875,-2.9915,-2.9904,-2.9866,-2.9871,-2.9975,-2.9981,-2.9914,-3.0101,-3.0018,-3.0034,-3.0093,-3.0118,-3.0138,-3.0136,-2.9821,0,0,0,0,0,-2.963,-2.9738,-2.9709,-2.9725,-2.9795,-2.9867,-2.9876,-2.9847,-2.9789,-2.984,-2.9837,-2.9788,-2.9937,-2.9877,-2.9894,-2.997,-3.0119,-3.0131,-3.0142,-3.0248,-3.0274,-3.0296,0,0,0,0,0,0,-2.9636,-2.9655,-2.9706,-2.9717,-2.9732,-2.9863,-2.9759,-2.9754,-2.9783,-2.9772,-2.979,-2.9789,-2.9766,-2.9866,-2.9882,-2.9955,-2.9816,-3.0123,-3.0133,-3.0143,-3.0257,-3.0278,-3.0297,0,0,0,0,0,-2.9641,-2.9656,-2.9776,-2.9715,-2.9729,-2.9716,-2.9755,-2.975,-2.9772,-2.9767,-2.9764,-2.9747,-2.9768,-2.9779,-2.9875,-2.9948,-2.9805,-2.9811,-3.013,-3.0138,-3.0145,-3.0267,0,0,0,0,0,0,-2.9644,-2.9652,-2.9778,-2.9781,-2.9672,-2.9708,-2.9712,-2.9747,-2.9764,-2.9762,-2.9722,-2.9713,-2.9772,-2.978,-2.9789,-2.9948,-2.9796,-2.9802,-2.9806,-3.0136,-3.0142,-3.0148,0,0,0,0,0,0,-2.9644,-2.9656,-2.978,-2.9727,-2.9723,-2.9701,-2.9705,-2.9782,-2.9765,-2.9718,-2.9711,-2.9718,-2.9759,-2.978,-2.9787,-2.9908,-2.9789,-2.9795,-2.9799,-2.9802,-3.0141,-3.0146,0,0,0,0,0,0,-2.9648,-2.9658,-2.9726,-2.9723,-2.972,-2.9752,-2.9768,-2.9842,-2.9719,-2.9718,-2.9707,-2.9702,-2.9761,-2.9767,-2.9786,-2.9905,-2.9908,-2.979,-2.9793,-2.9796,-2.9798,0,0,0,0,0,0,0,-2.9652,-2.9591,-2.976,-2.9721,-2.9717,-2.981,-2.981,-2.9811,-2.9718,-2.9713,-2.9708,-2.9704,-2.9757,-2.9763,-2.9769,-2.9903,0,0,-2.9789,-2.9792,0,0,0,0,0,0,0,0,-2.9586,-2.959,-2.976,-2.9761,-2.9762,-2.981,-2.981,-2.9811,-2.9717,-2.9713,-2.9709,-2.9706,-2.9758,-2.9763,-2.9769,0,0,0,0,0,0,0,0,0,0,0,0,0,0,0,-2.9761,-2.9761,0,-2.981,-2.981,-2.9811,-2.9716,-2.9713,-2.971,-2.9707,-2.976,-2.9764,-2.9768,0,0,0,0,0,0,0,0,0,0,0,0,0,0,0,0,0,0,0,0,0,0,0,0,0,0,0,0,0,0,0,0,0,0,0,0,0,0,0,0,0,0,0,0,0,0,0,0,0,0,0,0,0,0,0,0,0,0,0,0,0,0,0,0,0,0,0,0,0]}],[{"header":{"parameterUnit":"kt","parameterCategory":2,"dx":1,"dy":1,"la1":30.253999710083008,"la2":30.299108505249023,"lo1":-89.0895004272461,"lo2":-89.04439544677734,"nx":28,"ny":28,"refTime":"2022-09-30T21:00:00:Z","depth":0,"parameterNumber":2,"parameterNumberName":"V-component_of_WINDS"},"data":[-7.0208,-7.0304,-7.0305,-7.0413,-7.0431,-7.0504,-7.053,-7.0563,-7.0589,-7.0674,-7.0723,-7.073,-7.0754,-7.081,-7.0861,-7.0862,-7.0884,-7.0919,-7.0914,-7.0762,-7.0741,-7.0721,-7.0699,-7.0923,-7.0923,-7.1073,-7.1074,-7.1075,-7.0099,-7.0119,-7.0176,-7.0232,-7.0281,-7.0248,-7.0288,-7.0331,-7.0396,-7.0428,-7.0475,-7.0549,-7.0606,-7.0617,-7.0672,-7.0714,-7.07,-7.0729,-7.0726,-7.073,-7.0567,-7.0544,-7.0739,-7.0739,-7.0739,-7.0739,-7.0739,-7.0739,-6.99,-6.9957,-6.9991,-7.0053,-7.008,-7.0117,-7.017,-7.0179,-7.0233,-7.0291,-7.0278,-7.0351,-7.038,-7.0444,-7.0464,-7.0519,-7.0487,-7.0516,-7.0524,-7.0532,-7.0542,-7.0329,-7.0527,-7.0527,-7.0526,-7.0526,-7.0525,0,-6.9755,-6.9751,-6.9806,-6.9861,-6.9905,-6.9946,-6.9984,-7.0016,-7.0005,-7.0049,-7.0114,-7.015,-7.0221,-7.028,-7.0329,-7.0343,-7.0311,-7.0307,-7.0327,-7.0336,-7.0338,-7.0339,-7.0074,-7.0301,-7.0299,-7.0297,-7.0296,-7.0296,-6.9555,-6.962,-6.9655,-6.9693,-6.9713,-6.9774,-6.981,-6.9795,-6.9833,-6.9875,-6.9924,-6.9983,-7.0029,-7.013,-7.0135,-7.0187,-7.0172,-7.0259,-7.0179,-7.0185,-7.0174,-7.0171,-7.0178,-7.0275,-7.0278,-7.028,-7.0281,0,-6.9442,-6.9441,-6.9542,-6.9568,-6.9577,-6.9646,-6.9667,-6.9721,-6.9722,-6.9797,-6.9813,-6.9814,-6.9876,-6.9868,-6.9935,-6.9929,-7.004,-7.0023,-7.0031,-7.0027,-7.0105,-7.0098,-7.0356,-7.039,-7.0156,-7.0159,-7.016,0,-6.9271,-6.9357,-6.935,-6.9409,-6.9504,-6.9486,-6.958,-6.959,-6.9615,-6.9674,-6.9636,-6.9692,-6.9672,-6.9726,-6.9716,-6.9805,-6.9817,-6.9818,-6.9814,-6.9822,-6.9822,-6.9841,-6.983,-6.9802,-6.9801,-6.98,-6.9799,0,-6.9096,-6.9192,-6.9287,-6.9308,-6.9343,-6.9388,-6.9404,-6.9432,-6.9466,-6.9508,-6.953,-6.958,-6.9608,-6.9647,-6.9634,-6.9581,-6.9742,-6.9666,-6.9743,-6.9743,-6.9779,-6.9777,-7.0008,-6.9797,-6.9797,-6.9796,-6.9796,0,-6.8957,-6.9004,-6.9141,-6.917,-6.9195,-6.9256,-6.9306,-6.9357,-6.9388,-6.9386,-6.9419,-6.9393,-6.9469,-6.9394,-6.95,-6.9434,-6.9463,-6.947,-6.9475,-6.9481,-6.9398,-6.9531,-6.9751,-6.9774,-6.9487,-6.9485,-6.9483,0,-6.8758,-6.8896,-6.8882,-6.9012,-6.9074,-6.903,-6.9097,-6.9126,-6.9129,-6.9181,-6.9184,-6.9242,-6.9184,-6.9201,-6.9254,-6.9259,-6.9344,-6.9247,-6.9321,-6.9323,-6.9316,-6.9518,-6.9553,-6.9704,-6.945,-6.9453,-6.9455,0,-6.8603,-6.8646,-6.867,-6.8694,-6.873,-6.8781,-6.8858,-6.8913,-6.8949,-6.8984,-6.9048,-6.9129,-6.9089,-6.9117,-6.91,-6.9155,-6.9286,-6.9104,-6.9105,-6.9138,-6.9431,-6.9465,-6.9491,-6.9262,-6.9266,-6.9269,-6.9429,0,-6.8396,-6.8464,-6.8529,-6.8581,-6.8619,-6.8699,-6.8691,-6.8732,-6.8713,-6.8714,-6.8807,-6.8826,-6.888,-6.8905,-6.8885,-6.9016,-6.8993,-6.8949,-6.8875,-6.9008,-6.906,-6.9081,-6.8798,-6.8795,-6.8793,-6.8792,0,0,-6.8206,-6.8303,-6.8284,-6.8359,-6.839,-6.8342,-6.8428,-6.8452,-6.8501,-6.8523,-6.8482,-6.8599,-6.8616,-6.8729,-6.877,-6.879,-6.8813,-6.8766,-6.8944,-6.8961,-6.8977,-6.9033,-6.9056,-6.8789,-6.8788,-6.8787,-6.8787,0,-6.8129,-6.8151,-6.8237,-6.8262,-6.8297,-6.8294,-6.8315,-6.8341,-6.8345,-6.8436,-6.8393,-6.8447,-6.854,-6.8564,-6.8588,-6.8753,-6.8716,-6.8769,-6.8862,-6.8926,-6.8945,-6.8962,-6.9022,-6.9043,-6.8782,-6.8782,-6.8782,0,-6.7976,-6.7996,-6.8037,-6.8105,-6.8127,-6.8191,-6.8113,-6.8183,-6.823,-6.817,-6.826,-6.8269,-6.83,-6.8408,-6.8455,-6.8419,-6.8629,-6.856,-6.8572,-6.8577,-6.8638,-6.8661,-6.8682,-6.8406,-6.8405,-6.8404,0,0,-6.791,-6.7973,-6.7988,-6.8087,-6.8105,-6.8101,-6.8134,-6.8118,-6.8148,-6.816,-6.8171,-6.82,-6.8254,-6.8289,-6.8339,-6.8458,-6.8463,-6.8514,-6.8532,-6.8547,-6.856,-6.8624,-6.8648,-6.8399,-6.8399,-6.8399,0,0,-6.7878,-6.7901,-6.7876,-6.7991,-6.8022,-6.8042,-6.8102,-6.8072,-6.8116,-6.8106,-6.808,-6.8087,-6.8187,-6.8197,-6.8135,-6.8312,-6.824,-6.8254,-6.8302,-6.8325,-6.8342,-6.8338,-6.8055,0,0,0,0,0,-6.7795,-6.7898,-6.7876,-6.7894,-6.7978,-6.8055,-6.8065,-6.8047,-6.7997,-6.8045,-6.805,-6.8008,-6.8158,-6.8103,-6.812,-6.8189,-6.8338,-6.8349,-6.8359,-6.8449,-6.8473,-6.8493,0,0,0,0,0,0,-6.7802,-6.7824,-6.7873,-6.7898,-6.7917,-6.8051,-6.7962,-6.796,-6.7991,-6.7982,-6.8009,-6.8009,-6.7994,-6.8092,-6.8108,-6.8175,-6.805,-6.8342,-6.8352,-6.836,-6.8457,-6.8477,-6.8493,0,0,0,0,0,-6.7807,-6.7825,-6.7965,-6.7896,-6.7913,-6.7914,-6.7958,-6.7955,-6.7979,-6.7985,-6.7984,-6.7963,-6.7996,-6.8008,-6.8102,-6.8168,-6.8039,-6.8045,-6.8348,-6.8356,-6.8362,-6.8467,0,0,0,0,0,0,-6.7811,-6.7823,-6.7968,-6.7972,-6.7856,-6.7906,-6.7913,-6.7952,-6.7979,-6.798,-6.7938,-6.793,-6.7999,-6.8008,-6.8017,-6.8167,-6.803,-6.8036,-6.804,-6.8354,-6.836,-6.8365,0,0,0,0,0,0,-6.7813,-6.7827,-6.797,-6.7921,-6.7919,-6.7899,-6.7905,-6.7981,-6.798,-6.793,-6.7925,-6.7934,-6.7984,-6.8008,-6.8015,-6.8135,-6.8023,-6.8029,-6.8033,-6.8035,-6.8359,-6.8363,0,0,0,0,0,0,-6.7818,-6.783,-6.7919,-6.7918,-6.7916,-6.7962,-6.7965,-6.8052,-6.794,-6.793,-6.7929,-6.7925,-6.7986,-6.7992,-6.8014,-6.8131,-6.8134,-6.8023,-6.8027,-6.803,-6.8032,0,0,0,0,0,0,0,-6.7823,-6.7749,-6.7943,-6.7916,-6.7914,-6.8011,-6.8012,-6.8014,-6.7939,-6.7935,-6.7931,-6.7927,-6.799,-6.7996,-6.8003,-6.8128,0,0,-6.8022,-6.8025,0,0,0,0,0,0,0,0,-6.7744,-6.7748,-6.7944,-6.7944,-6.7945,-6.8011,-6.8012,-6.8013,-6.7938,-6.7935,-6.7931,-6.7928,-6.7992,-6.7997,-6.8002,0,0,0,0,0,0,0,0,0,0,0,0,0,0,0,-6.7944,-6.7944,0,-6.8012,-6.8012,-6.8013,-6.7938,-6.7935,-6.7932,-6.793,-6.7993,-6.7997,-6.8001,0,0,0,0,0,0,0,0,0,0,0,0,0,0,0,0,0,0,0,0,0,0,0,0,0,0,0,0,0,0,0,0,0,0,0,0,0,0,0,0,0,0,0,0,0,0,0,0,0,0,0,0,0,0,0,0,0,0,0,0,0,0,0,0,0,0,0,0,0]}]]]